SCOUT A R/B, 3137

Orbit data source: Space-Track

SCOUT A R/B, 3137 is space debris in LEO originally from a launch on Sat, 02 Mar 1968 UTC launched from the Air Force Western Test Range (AFWTR). Debris objects in space refer to the collection of defunct objects orbiting the Earth. Examples of debris include non-operational satellites, rocket bodies, and fragments generated from explosions, collisions, or faulty payload assembly.

Loading next visibility...
Identifier
3137, 1968-012B
Orbit
LEO
Country
Flag of USUS
Related business
Manufacturer
ABL
Mission
Spacecraft
Bus & Motor
ALTAIR, Unknown motor
Mass
33 kg wet, 33 kg dry
Launch date (UTC)
1968-03-02 (58 years ago)
Launch vehicle
Unknown
Launch site
Air Force Western Test Range (AFWTR)
Object type
Payload
Rocket body
Debris
Shape & HBR
Unknown
Radar Cross Section
Medium (>0.1 m² and <1 m²)

Expand to show TLE details & history
Last TLE update: 9 hours ago

TLE from 9 hours ago
0 SCOUT A R/B
1  3137U 68012B   25300.48128007  .00000265  00000-0  39296-3 0  9996
2  3137  90.0231 272.8746 0076050  25.2771 335.2070 13.50294836837389
Epoch: 2025-10-27T11:33Z
TLE epoch observation values (Epoch: 2025-10-27T11:33:02.598Z)
Latitude
-0.00001°
Longitude
63.53127°
Altitude
1,022.764 km
Speed
7.366 km/s
True Right ascension
18h 11m 29s
True Declination
0° 00' 00"
Sunlit
Object was in daylight at epoch
Visualization orbit readout
Latitude
Unknown
Longitude
Unknown
Altitude
Unknown
Speed
Unknown
Apparent Right ascension
Unknown
Apparent Declination
Unknown
Sunlit
N/A
Visualization observer readout
Local Sidereal Time
15:42:43
Azimuth
Unknown
Elevation
Unknown
Doppler factor
Unknown
Orbital elements
Apogee altitude
1,124.853 km
Perigee altitude
1,011.594 km
Semi-major axis
7,446.36 km
Eccentricity
0.00761
Inclination
90.0231°
RAAN
272.8746°
Arg. of periapsis
25.2771°
True anomaly
334.83838°
Mean anomaly
335.207°
Eccentric anomaly
335.02301°
Mean motion
3.37775 °/min
Orbital period
106.58 mins
BSTAR
0.00039296
Loading maneuver chart data...
Computing Atmospheric mass density...
Loading historical data...
Loading historical data...
Loading historical data...
Loading historical data...
Loading historical data...
Loading historical data...
Loading historical data...

Documentation

Showing up to 5 results
|